• In Austria
  • List of Countries
  • For 7 days
  • Water Temperature
  • Satellite Maps
  • Weather Map
  • News
  • Weather Widgets
  • user-avatar
    Login

    Hourly Weather Murfreesboro

    Today, 21 September, Friday

    Time Temperature Precipitation Wind Pressure Humidity
    00:00 +26°C° 0 mm 3 mps 747 mmHg 68%
    01:00 +26°C° 0 mm 3 mps 747 mmHg 70%
    02:00 +25°C° 0 mm 3 mps 747 mmHg 72%
    03:00 +25°C° 0 mm 3 mps 747 mmHg 74%
    04:00 +25°C° 0.2 mm 3 mps 747 mmHg 77%
    05:00 +24°C° 0.2 mm 3 mps 748 mmHg 81%
    06:00 +24°C° 0.2 mm 3 mps 748 mmHg 85%
    07:00 +25°C° 0 mm 3 mps 748 mmHg 80%
    08:00 +27°C° 0 mm 4 mps 748 mmHg 75%
    09:00 +29°C° 0 mm 4 mps 749 mmHg 70%
    10:00 +30°C° 0.4 mm 4 mps 748 mmHg 68%
    11:00 +32°C° 0.4 mm 4 mps 748 mmHg 66%
    12:00 +32°C° 0.4 mm 4 mps 748 mmHg 64%
    13:00 +32°C° 0.8 mm 4 mps 747 mmHg 66%
    14:00 +31°C° 0.8 mm 3 mps 747 mmHg 68%
    15:00 +31°C° 0.8 mm 3 mps 746 mmHg 70%
    16:00 +29°C° 0.8 mm 2 mps 746 mmHg 75%
    17:00 +28°C° 0.8 mm 2 mps 746 mmHg 80%
    18:00 +26°C° 0.8 mm 1 mps 747 mmHg 85%
    19:00 +26°C° 0.1 mm 1 mps 747 mmHg 86%
    20:00 +25°C° 0.1 mm 1 mps 747 mmHg 87%
    21:00 +25°C° 0.1 mm 1 mps 748 mmHg 88%
    22:00 +25°C° 0.1 mm 1 mps 748 mmHg 88%
    23:00 +24°C° 0.1 mm 1 mps 748 mmHg 89%

    Tomorrow, 22 September, Saturday

    Time Temperature Precipitation Wind Pressure Humidity
    00:00 +24°C° 0.1 mm 1 mps 748 mmHg 90%
    01:00 +24°C° 0.1 mm 1 mps 747 mmHg 91%
    02:00 +24°C° 0.1 mm 1 mps 747 mmHg 91%
    03:00 +23°C° 0.1 mm 1 mps 747 mmHg 92%
    04:00 +23°C° 0.3 mm 1 mps 747 mmHg 92%
    05:00 +23°C° 0.3 mm 1 mps 747 mmHg 93%
    06:00 +23°C° 0.3 mm 1 mps 748 mmHg 93%
    07:00 +24°C° 0.7 mm 1 mps 748 mmHg 89%
    08:00 +26°C° 0.7 mm 1 mps 748 mmHg 86%
    09:00 +27°C° 0.7 mm 1 mps 748 mmHg 83%
    10:00 +28°C° 2.4 mm 2 mps 748 mmHg 82%
    11:00 +28°C° 2.4 mm 2 mps 748 mmHg 80%
    12:00 +28°C° 2.4 mm 2 mps 747 mmHg 79%
    13:00 +28°C° 2.2 mm 2 mps 747 mmHg 81%
    14:00 +27°C° 2.2 mm 2 mps 747 mmHg 83%
    15:00 +27°C° 2.2 mm 3 mps 746 mmHg 84%
    16:00 +26°C° 0.6 mm 2 mps 746 mmHg 87%
    17:00 +25°C° 0.6 mm 2 mps 746 mmHg 90%
    18:00 +24°C° 0.6 mm 2 mps 746 mmHg 93%
    19:00 +23°C° 0.1 mm 2 mps 747 mmHg 93%
    20:00 +23°C° 0.1 mm 2 mps 747 mmHg 94%
    21:00 +23°C° 0.1 mm 2 mps 747 mmHg 95%
    22:00 +21°C° 0.7 mm 2 mps 747 mmHg 96%
    23:00 +21°C° 0.7 mm 2 mps 747 mmHg 96%

    Day after tomorrow, 23 September, Sunday

    Time Temperature Precipitation Wind Pressure Humidity
    00:00 +21°C° 0.7 mm 2 mps 747 mmHg 96%
    01:00 +22°C° 1.6 mm 1 mps 746 mmHg 97%
    02:00 +22°C° 1.6 mm 1 mps 746 mmHg 97%
    03:00 +22°C° 1.6 mm 1 mps 746 mmHg 97%
    04:00 +22°C° 1.7 mm 1 mps 746 mmHg 97%
    05:00 +22°C° 1.7 mm 1 mps 746 mmHg 97%
    06:00 +22°C° 1.7 mm 1 mps 747 mmHg 97%
    07:00 +22°C° 0.6 mm 1 mps 747 mmHg 96%
    08:00 +23°C° 0.6 mm 1 mps 747 mmHg 96%
    09:00 +23°C° 0.6 mm 1 mps 748 mmHg 96%
    10:00 +23°C° 0.2 mm 1 mps 747 mmHg 94%
    11:00 +24°C° 0.2 mm 1 mps 747 mmHg 93%
    12:00 +24°C° 0.2 mm 1 mps 747 mmHg 91%
    13:00 +25°C° 0.5 mm 1 mps 747 mmHg 87%
    14:00 +26°C° 0.5 mm 1 mps 746 mmHg 83%
    15:00 +27°C° 0.5 mm 1 mps 746 mmHg 79%
    16:00 +26°C° 0.4 mm 1 mps 746 mmHg 82%
    17:00 +25°C° 0.4 mm 1 mps 746 mmHg 85%
    18:00 +24°C° 0.4 mm 1 mps 746 mmHg 88%
    19:00 +24°C° 0.1 mm 1 mps 746 mmHg 89%
    20:00 +24°C° 0.1 mm 1 mps 747 mmHg 89%
    21:00 +24°C° 0.1 mm 1 mps 747 mmHg 89%
    22:00 +23°C° 0.5 mm 1 mps 747 mmHg 90%
    23:00 +23°C° 0.5 mm 1 mps 747 mmHg 90%

    24 September, Monday

    Time Temperature Precipitation Wind Pressure Humidity
    00:00 +23°C° 0.5 mm 1 mps 747 mmHg 91%
    01:00 +23°C° 0.5 mm 1 mps 747 mmHg 91%
    02:00 +22°C° 0.5 mm 1 mps 747 mmHg 92%
    03:00 +22°C° 0.5 mm 1 mps 747 mmHg 92%
    04:00 +21°C° 0.6 mm 2 mps 747 mmHg 93%
    05:00 +21°C° 0.6 mm 2 mps 747 mmHg 93%
    06:00 +21°C° 0.6 mm 2 mps 748 mmHg 94%
    07:00 +22°C° 0.6 mm 3 mps 748 mmHg 92%
    08:00 +23°C° 0.6 mm 4 mps 748 mmHg 91%
    09:00 +25°C° 0.6 mm 4 mps 748 mmHg 89%
    10:00 +26°C° 0.6 mm 5 mps 748 mmHg 85%
    11:00 +27°C° 0.6 mm 5 mps 748 mmHg 80%
    12:00 +28°C° 0.6 mm 6 mps 748 mmHg 76%
    13:00 +28°C° 0.3 mm 5 mps 747 mmHg 75%
    14:00 +28°C° 0.3 mm 5 mps 747 mmHg 74%
    15:00 +29°C° 0.3 mm 5 mps 746 mmHg 74%
    16:00 +27°C° 0.1 mm 4 mps 746 mmHg 76%
    17:00 +26°C° 0.1 mm 4 mps 747 mmHg 78%
    18:00 +25°C° 0.1 mm 3 mps 747 mmHg 81%
    19:00 +25°C° 0 mm 4 mps 747 mmHg 81%
    20:00 +23°C° 0 mm 4 mps 748 mmHg 81%
    21:00 +23°C° 0 mm 5 mps 748 mmHg 81%
    22:00 +22°C° 0 mm 5 mps 748 mmHg 81%
    23:00 +22°C° 0 mm 5 mps 748 mmHg 82%

    25 September, Tuesday

    Time Temperature Precipitation Wind Pressure Humidity
    00:00 +22°C° 0 mm 5 mps 747 mmHg 83%
    01:00 +22°C° 0.2 mm 5 mps 747 mmHg 85%
    02:00 +22°C° 0.2 mm 4 mps 747 mmHg 88%
    03:00 +21°C° 0.2 mm 4 mps 747 mmHg 90%
    04:00 +22°C° 0.2 mm 4 mps 747 mmHg 90%
    05:00 +22°C° 0.2 mm 4 mps 747 mmHg 91%
    06:00 +22°C° 0.2 mm 4 mps 747 mmHg 91%
    07:00 +23°C° 0.5 mm 5 mps 747 mmHg 90%
    08:00 +25°C° 0.5 mm 5 mps 748 mmHg 89%
    09:00 +25°C° 0.5 mm 5 mps 748 mmHg 88%
    10:00 +26°C° 0.1 mm 5 mps 747 mmHg 85%
    11:00 +27°C° 0.1 mm 5 mps 747 mmHg 83%
    12:00 +27°C° 0.1 mm 5 mps 747 mmHg 81%
    13:00 +27°C° 0.6 mm 5 mps 746 mmHg 83%
    14:00 +27°C° 0.6 mm 4 mps 746 mmHg 85%
    15:00 +27°C° 0.6 mm 3 mps 746 mmHg 87%
    16:00 +26°C° 1.6 mm 3 mps 746 mmHg 89%
    17:00 +26°C° 1.6 mm 3 mps 746 mmHg 92%
    18:00 +25°C° 1.6 mm 2 mps 746 mmHg 94%
    19:00 +25°C° 1.9 mm 2 mps 746 mmHg 94%
    20:00 +24°C° 1.9 mm 3 mps 746 mmHg 93%
    21:00 +24°C° 1.9 mm 3 mps 746 mmHg 93%
    22:00 +24°C° 2.6 mm 3 mps 746 mmHg 94%
    23:00 +24°C° 2.6 mm 2 mps 746 mmHg 95%

    26 September, Wednesday

    Time Temperature Precipitation Wind Pressure Humidity
    00:00 +24°C° 2.6 mm 2 mps 745 mmHg 96%
    01:00 +24°C° 3.7 mm 2 mps 745 mmHg 96%
    02:00 +24°C° 3.7 mm 2 mps 745 mmHg 96%
    03:00 +23°C° 3.7 mm 2 mps 745 mmHg 96%
    04:00 +23°C° 3.7 mm 2 mps 745 mmHg 96%
    05:00 +23°C° 3.7 mm 2 mps 745 mmHg 96%
    06:00 +23°C° 3.7 mm 2 mps 745 mmHg 97%
    07:00 +23°C° 0.6 mm 2 mps 746 mmHg 95%
    08:00 +24°C° 0.6 mm 2 mps 746 mmHg 94%
    09:00 +24°C° 0.6 mm 3 mps 746 mmHg 92%
    10:00 +25°C° 0 mm 3 mps 746 mmHg 89%
    11:00 +25°C° 0 mm 3 mps 746 mmHg 86%
    12:00 +26°C° 0 mm 3 mps 746 mmHg 83%
    13:00 +26°C° 0 mm 3 mps 746 mmHg 83%
    14:00 +25°C° 0 mm 3 mps 746 mmHg 83%
    15:00 +25°C° 0 mm 3 mps 745 mmHg 82%
    16:00 +24°C° 0 mm 3 mps 746 mmHg 84%
    17:00 +22°C° 0 mm 3 mps 746 mmHg 86%
    18:00 +23°C° 0 mm 2 mps 746 mmHg 88%
    19:00 +21°C° 0 mm 2 mps 746 mmHg 90%
    20:00 +20°C° 0 mm 2 mps 746 mmHg 91%
    21:00 +19°C° 0 mm 2 mps 746 mmHg 93%
    22:00 +19°C° 0 mm 2 mps 746 mmHg 94%
    23:00 +20°C° 0 mm 1 mps 746 mmHg 94%
    Show more